Location: Bletchingley
(51.2333°N, 0.1000°W)
Time: 12:02:58
(UTC+00:00)

Meteor 1-24 Rocket - Pass Details

Date: 18 September 2020
Orbit: 790 x 927 km, 81.2° (Epoch: 25 October)

Event Time Altitude Azimuth Distance (km) Brightness Sun altitude
Rises 20:47:18 0° 346° (NNW) 3,342 7.6 -24.2°
Reaches altitude 10° 20:49:40 10° 344° (NNW) 2,421 6.8 -24.5°
Maximum altitude 20:55:07 75° 261° (W) 872 3.7 -25.1°
Enters shadow 20:56:34 50° 191° (S) 1,063 4.0 -25.3°
